Time,TemperatureF,DewpointF,PressureIn,WindDirection,WindDirectionDegrees,WindSpeedMPH,WindSpeedGustMPH,Humidity,HourlyPrecipIn,Conditions,Clouds,dailyrainin,SoftwareType,DateUTC
2013-05-19 02:02:00,56.0,42.0,-100.00,WSW,245,3.0,10.0,59,-99.99,,,-99.99,,2013-05-19 06:02:00,
2013-05-19 02:12:00,56.0,42.0,-100.00,WSW,245,3.0,10.0,59,-99.99,,,-99.99,,2013-05-19 06:12:00,
2013-05-19 04:01:00,54.0,41.0,-100.00,SSE,165,1.0,7.0,61,-99.99,,,-99.99,,2013-05-19 08:01:00,
2013-05-19 04:12:00,54.0,41.0,-100.00,SSE,165,1.0,7.0,61,-99.99,,,-99.99,,2013-05-19 08:12:00,
2013-05-19 06:02:00,53.0,42.0,-100.00,NNE,25,1.0,2.0,66,-99.99,,,-99.99,,2013-05-19 10:02:00,
2013-05-19 06:12:00,53.0,42.0,-100.00,NNE,25,1.0,2.0,66,-99.99,,,-99.99,,2013-05-19 10:12:00,
2013-05-19 08:01:00,52.0,43.0,-100.00,NE,40,2.0,5.0,71,-99.99,,,-99.99,,2013-05-19 12:01:00,
2013-05-19 08:11:00,52.0,43.0,-100.00,NE,40,2.0,5.0,71,-99.99,,,-99.99,,2013-05-19 12:11:00,
2013-05-19 09:01:00,51.0,43.0,-100.00,NNE,25,0.0,7.0,73,-99.99,,,-99.99,,2013-05-19 13:01:00,
2013-05-19 09:11:00,51.0,43.0,-100.00,NNE,25,0.0,7.0,73,-99.99,,,-99.99,,2013-05-19 13:11:00,
2013-05-19 10:02:00,51.0,43.0,-100.00,WSW,245,1.0,6.0,73,-99.99,,,-99.99,,2013-05-19 14:02:00,
2013-05-19 10:11:00,51.0,43.0,-100.00,WSW,245,1.0,6.0,73,-99.99,,,-99.99,,2013-05-19 14:11:00,
2013-05-19 11:01:00,51.0,44.0,-100.00,SSE,165,1.0,7.0,76,-99.99,,,-99.99,,2013-05-19 15:01:00,
2013-05-19 11:11:00,51.0,44.0,-100.00,SSE,165,1.0,7.0,76,-99.99,,,-99.99,,2013-05-19 15:11:00,
2013-05-19 12:03:00,52.0,45.0,-100.00,SSE,150,5.0,9.0,76,-99.99,,,-99.99,,2013-05-19 16:03:00,
2013-05-19 12:12:00,52.0,45.0,-100.00,SSE,150,5.0,9.0,76,-99.99,,,-99.99,,2013-05-19 16:12:00,
2013-05-19 15:01:00,63.0,47.0,-100.00,South,180,3.0,7.0,55,-99.99,,,-99.99,,2013-05-19 19:01:00,
2013-05-19 15:11:00,63.0,47.0,-100.00,South,180,3.0,7.0,55,-99.99,,,-99.99,,2013-05-19 19:11:00,
2013-05-19 17:02:00,69.0,48.0,-100.00,NW,305,1.0,6.0,47,-99.99,,,-99.99,,2013-05-19 21:02:00,
2013-05-19 17:11:00,69.0,48.0,-100.00,NW,305,1.0,6.0,47,-99.99,,,-99.99,,2013-05-19 21:11:00,
2013-05-19 19:02:00,67.0,45.0,-100.00,West,260,6.0,12.0,45,-99.99,,,-99.99,,2013-05-19 23:02:00,
2013-05-19 19:11:00,67.0,45.0,-100.00,West,260,6.0,12.0,45,-99.99,,,-99.99,,2013-05-19 23:11:00,
2013-05-19 20:02:00,66.0,47.0,-100.00,West,260,6.0,13.0,50,-99.99,,,-99.99,,2013-05-20 00:02:00,
2013-05-19 20:11:00,66.0,47.0,-100.00,West,260,6.0,13.0,50,-99.99,,,-99.99,,2013-05-20 00:11:00,
2013-05-19 22:02:00,64.0,46.0,-100.00,WNW,285,3.0,9.0,51,-99.99,,,-99.99,,2013-05-20 02:02:00,
2013-05-19 22:11:00,64.0,46.0,-100.00,WNW,285,3.0,9.0,51,-99.99,,,-99.99,,2013-05-20 02:11:00,